Vorticity
21 20 21 18 14 9 2 3 4 5 6 10 16 23 31 28 24 21 26 29 27 23 18 14 11 10 10 8 6 6 6 9 12 14 14 10 7 6 7 9 10 12 14 17 18 19 17 11 7 6 7 9 7 2 -3 -2 -0 3 9 5 5 7 10 14 18 21 23 23 22 20 18 15 14 13 14 14 14 14 13 12 10 9 8 8 8 9
21 20 21 20 16 13 11 6 3 2 1 6 12 18 24 24 22 23 30 37 36 30 22 18 14 11 9 8 8 8 10 12 12 13 14 10 7 5 6 7 9 11 13 15 17 19 19 16 10 5 5 9 8 4 -3 -1 -3 -2 5 3 3 8 16 28 31 30 28 22 18 14 10 8 6 5 6 7 9 12 14 15 14 13 11 10 10 10
24 24 20 21 18 16 19 9 4 -1 -9 -9 -4 6 19 22 26 27 24 35 36 30 22 18 14 11 9 9 9 8 9 10 11 13 14 11 7 4 4 6 7 9 11 13 15 17 19 19 14 8 3 7 8 6 -1 -2 -3 -3 -0 3 4 10 24 34 31 24 19 14 9 7 7 5 3 0 -2 -2 -3 -2 2 9 13 15 14 12 12 12
21 24 21 22 20 20 21 17 13 5 -10 -21 -24 -18 -2 8 28 43 36 38 34 26 15 13 11 9 7 9 9 9 8 9 11 13 14 12 9 6 4 5 6 8 10 12 14 16 17 18 17 14 8 8 8 6 1 -2 -3 -2 3 7 10 15 25 21 12 5 8 7 6 6 10 11 11 9 7 4 0 -4 -6 -1 5 10 11 12 13 13
15 18 17 20 23 25 21 18 19 17 5 -14 -25 -27 -21 -16 5 33 55 51 40 25 9 8 8 7 5 7 8 8 9 11 12 12 13 12 10 7 5 5 6 7 9 10 12 14 16 17 17 17 14 12 10 7 4 -1 -2 -1 5 13 19 21 19 4 -5 -5 7 8 7 7 10 15 17 17 16 14 11 7 3 3 4 6 7 10 11 11
12 14 16 17 20 24 27 20 19 21 22 3 -13 -24 -27 -29 -16 14 57 56 46 31 13 9 7 6 4 4 4 5 8 12 13 13 12 12 10 8 6 6 6 7 8 9 10 12 14 15 16 17 16 14 12 9 6 1 -2 -3 -1 10 26 32 15 -0 -4 1 9 8 8 8 10 15 18 19 17 17 16 14 10 9 8 7 7 8 10 11
11 12 16 15 15 18 23 22 22 25 33 24 4 -16 -26 -35 -35 -15 36 50 50 41 26 17 12 9 7 6 5 4 4 9 11 12 12 12 12 10 8 7 6 7 7 8 9 11 12 14 15 16 16 15 13 11 8 4 -0 -4 -10 -8 13 28 10 3 2 5 8 8 8 9 12 18 20 19 16 16 17 16 14 13 12 11 12 12 13 12
14 14 15 14 14 14 16 16 18 22 33 35 20 -2 -16 -31 -44 -39 -1 31 43 40 31 25 23 22 19 13 8 4 3 6 9 11 12 14 14 13 10 8 7 7 7 8 9 10 11 12 14 15 15 15 14 12 11 7 3 -3 -13 -23 -14 -0 -1 1 3 5 7 8 11 13 13 20 20 17 10 10 12 14 15 16 17 17 16 16 15 12
16 16 15 14 14 16 16 14 16 22 32 45 32 11 -1 -13 -30 -38 -26 4 19 22 19 18 25 33 37 24 14 7 5 6 8 10 13 16 17 16 14 11 9 8 7 8 8 9 10 11 13 14 15 15 14 14 13 11 8 3 -5 -20 -25 -23 -14 -7 -0 4 6 7 11 14 14 17 15 11 3 3 4 7 11 14 16 17 17 15 12 9
15 15 15 13 13 14 17 15 16 22 33 54 44 21 1 -2 -10 -22 -32 -18 -7 -0 0 3 13 29 46 32 20 12 9 8 8 10 14 16 18 18 17 14 12 10 9 8 8 8 9 10 12 13 14 15 15 15 14 13 12 9 6 -6 -16 -22 -20 -12 -6 -1 3 2 1 2 8 13 12 7 -3 -3 -1 4 10 14 15 14 13 8 5 3
16 16 15 13 12 12 11 10 9 13 24 44 45 31 4 -3 -4 -6 -18 -20 -18 -15 -13 -9 1 15 33 28 19 11 9 8 7 7 9 13 15 17 18 17 15 13 11 9 8 8 8 9 10 11 13 14 15 15 15 14 13 11 10 5 -3 -10 -14 -11 -8 -5 -3 -2 -6 -9 -4 10 12 6 -7 -5 -1 5 13 17 17 13 6 -1 -1 1
18 18 16 14 12 11 9 8 5 6 14 31 42 40 20 5 1 2 1 -6 -9 -12 -15 -14 -11 -3 11 15 14 9 5 3 3 3 5 7 11 14 16 17 16 15 13 11 9 8 8 8 8 9 11 12 13 14 15 15 14 13 11 10 6 0 -5 -6 -5 -5 -5 -4 -5 -7 -5 5 8 4 -6 -3 1 6 11 13 12 7 -2 -5 -3 2
18 19 17 14 11 9 9 10 9 9 13 25 36 40 34 19 11 8 13 7 3 -0 -4 -7 -9 -8 -5 2 6 7 5 2 1 2 4 7 10 13 15 16 17 16 15 13 11 9 8 7 7 7 8 10 11 13 14 15 15 14 13 12 9 6 2 1 1 -0 -1 -1 -1 -0 0 1 0 -2 -6 -1 3 5 4 3 5 6 -2 -1 2 5
20 20 19 15 12 9 7 6 8 10 14 23 32 38 37 27 18 15 19 17 13 10 6 4 3 2 1 0 0 1 2 3 4 5 6 8 12 14 15 16 16 17 17 15 13 11 9 8 7 7 7 8 9 11 12 14 15 15 15 14 11 8 5 5 5 6 6 6 5 4 4 3 2 -1 -4 1 4 4 2 1 9 14 8 8 9 9
19 19 17 14 13 12 10 7 6 6 7 15 25 33 32 28 22 19 21 19 14 10 9 11 13 14 13 10 6 2 0 3 5 7 8 11 14 16 17 16 16 16 17 16 15 13 10 9 7 7 6 7 7 8 10 12 13 14 15 15 13 10 5 5 6 8 10 11 10 9 7 7 7 5 2 3 4 5 5 7 15 21 18 5 1 2
19 16 11 9 10 11 10 8 7 6 7 13 20 26 26 26 25 23 20 15 9 6 10 15 19 20 17 20 14 7 4 4 5 6 8 11 15 18 19 17 16 15 16 16 16 14 12 10 9 8 7 6 7 7 8 10 11 13 14 16 16 14 9 6 6 7 10 11 12 11 11 9 9 8 6 5 5 6 7 10 20 25 14 -4 -7 -2
19 13 6 3 4 7 10 9 6 7 12 19 22 24 27 28 27 24 18 9 6 9 20 26 24 19 15 19 18 13 8 6 6 6 6 8 13 17 19 18 17 15 15 15 15 15 14 12 10 9 8 7 7 7 7 8 9 11 11 13 16 17 15 10 8 8 10 11 11 11 12 11 11 11 9 8 8 8 8 8 17 20 4 -6 -4 3
18 13 6 -2 -3 -0 6 9 10 11 17 21 23 24 24 25 23 19 13 8 10 18 28 36 37 31 18 14 13 14 15 11 9 7 5 5 9 14 18 18 17 15 15 14 14 14 14 13 12 10 9 8 8 7 7 7 8 9 10 10 11 14 15 15 14 13 13 13 13 12 12 12 11 10 10 10 9 8 6 6 10 10 -0 -4 1 7
19 14 6 -1 -5 -5 -1 4 10 16 23 24 24 24 24 21 16 10 6 8 12 16 15 29 40 41 28 20 15 14 17 16 12 8 5 4 7 11 15 17 16 15 14 14 13 13 13 13 12 11 10 10 9 8 8 7 7 8 9 8 9 9 11 13 15 16 17 16 15 14 14 13 12 11 10 9 8 7 5 4 6 7 3 3 5 8
21 15 5 3 -1 -5 -9 -6 2 13 24 27 27 26 26 25 19 12 6 7 4 1 1 17 28 32 25 20 18 19 20 18 14 9 5 5 6 8 12 15 16 16 15 14 14 13 13 12 11 11 10 10 10 10 9 8 7 7 8 8 7 6 6 7 10 13 15 13 12 12 13 14 14 14 12 11 9 7 5 5 5 6 5 4 5 5
21 16 11 5 -1 -7 -11 -12 -5 8 23 28 28 25 22 24 23 19 13 6 -3 -7 -2 12 18 20 16 16 17 18 20 19 15 10 7 5 5 7 10 13 15 16 16 15 15 14 13 12 11 10 10 10 10 10 10 9 8 8 8 8 7 5 4 3 5 7 10 7 5 5 7 10 12 13 13 12 10 8 7 6 6 7 6 5 5 5
20 18 20 11 -1 -9 -11 -11 -4 9 25 28 26 23 21 23 25 27 28 10 -4 -9 -3 4 9 12 10 11 13 15 17 16 14 12 9 6 6 8 10 12 14 15 15 16 16 15 14 13 12 11 9 9 9 9 9 9 9 9 9 8 8 7 5 4 4 6 9 7 4 2 1 4 7 9 11 11 10 9 8 8 8 8 8 6 7 7
20 19 22 15 7 -1 -7 -8 0 13 27 27 23 18 19 27 30 31 36 22 6 -7 -9 -3 4 9 9 9 10 12 13 12 12 11 9 6 7 9 12 12 13 13 14 15 16 16 15 14 13 12 10 9 9 9 9 9 9 9 9 9 8 8 8 7 7 8 10 9 6 4 1 1 2 4 6 9 9 9 9 10 11 12 11 10 11 11
23 21 19 15 10 5 -0 -3 4 15 27 25 17 11 10 16 20 23 26 33 22 3 -12 -2 3 6 9 10 11 11 12 12 12 12 8 7 8 10 13 13 13 13 14 15 15 16 16 15 14 13 12 10 9 9 9 9 9 9 9 9 9 9 8 8 9 10 11 9 8 6 5 3 2 2 3 5 7 8 8 10 13 16 15 15 16 15
27 24 20 15 11 7 2 1 8 18 27 22 15 9 6 8 9 10 12 31 26 10 -7 -2 2 6 13 15 16 16 13 14 14 13 11 10 9 10 13 13 13 14 15 15 15 15 16 15 15 14 13 11 10 9 9 9 9 8 8 8 9 9 9 8 9 10 10 10 8 7 6 6 5 3 2 4 5 7 8 11 16 18 16 15 14 13
28 28 25 20 14 9 5 5 11 19 25 17 12 10 11 7 4 3 7 23 25 16 1 0 0 3 9 22 29 30 21 22 20 17 15 13 9 8 12 12 13 13 15 15 15 15 15 15 15 15 14 12 11 10 9 9 8 8 8 8 8 9 9 9 9 9 9 9 9 8 7 6 6 5 4 5 6 7 8 14 18 18 12 9 8 8
23 28 30 25 19 13 9 9 14 19 21 9 4 6 14 15 12 8 9 18 20 17 8 6 3 1 -2 16 32 37 27 35 34 28 21 15 9 6 9 12 12 12 14 15 15 14 15 15 16 16 15 13 12 10 9 8 8 8 8 8 8 9 9 9 9 8 8 9 9 8 7 7 7 7 7 8 9 11 13 15 16 14 8 5 4 5
14 21 28 28 24 18 13 12 16 18 14 -0 -5 0 14 22 22 19 16 19 20 16 10 10 9 4 -12 -9 1 11 12 32 39 38 29 17 7 2 7 12 13 12 14 16 16 15 15 15 16 16 15 15 13 11 9 8 8 8 8 8 8 8 9 9 9 9 8 9 9 8 8 7 8 9 11 13 14 16 17 15 12 9 7 7 6 6
11 15 23 26 26 23 18 17 17 15 7 -7 -9 -2 14 24 28 27 24 26 24 18 11 9 9 3 -15 -32 -37 -29 -9 25 36 35 32 18 6 0 8 12 12 12 14 16 17 17 16 16 16 16 16 16 14 13 11 9 8 7 7 7 7 8 8 9 9 9 9 9 9 9 8 9 10 12 15 17 17 17 16 12 9 7 8 9 8 6
13 14 19 24 25 25 23 21 19 14 3 -7 -6 3 18 27 31 32 31 31 25 16 9 10 9 2 -13 -36 -51 -46 -8 30 34 25 26 16 7 4 12 11 10 11 15 18 18 18 20 20 19 17 18 17 16 14 12 11 9 8 7 6 7 7 8 9 10 11 11 11 11 11 11 12 14 16 19 19 18 15 14 12 11 10 11 11 8 5
16 15 18 21 24 25 25 25 23 17 5 -1 3 12 25 32 35 35 33 30 20 9 6 15 15 7 -8 -28 -42 -37 2 34 31 17 16 11 7 8 14 10 8 8 13 18 19 17 17 19 19 18 18 18 17 16 15 13 11 10 8 7 7 7 9 10 11 12 13 14 14 15 16 17 18 20 22 19 15 11 11 11 11 11 11 11 8 4
18 19 19 20 22 23 25 27 25 20 12 9 13 20 27 32 36 37 33 25 14 7 10 20 17 9 -2 -18 -29 -23 7 31 25 10 9 8 7 7 10 8 5 4 6 14 18 19 16 12 12 14 16 17 18 19 19 17 15 13 11 9 8 9 11 11 12 13 15 17 19 20 20 20 21 21 20 15 10 8 7 7 7 7 8 8 7 5
20 24 25 23 23 23 24 25 24 21 16 15 18 22 26 28 32 35 32 22 13 11 20 23 19 14 11 -9 -20 -16 8 26 17 4 7 8 7 6 6 4 2 1 2 7 14 20 24 15 9 8 13 15 18 20 21 20 18 16 14 12 11 11 12 12 12 13 15 17 19 20 20 19 19 18 17 13 9 6 5 4 5 6 6 8 8 7
15 24 27 26 25 24 25 24 21 18 13 12 17 23 25 23 25 28 29 21 14 14 22 25 24 23 24 5 -6 -7 6 17 13 5 6 8 8 6 5 3 2 3 4 6 11 17 24 21 15 10 9 12 15 18 20 19 18 17 17 16 14 13 13 11 11 12 14 15 15 16 17 17 16 15 15 13 11 9 6 5 5 6 7 8 9 8
5 16 23 24 25 26 26 24 20 14 7 9 16 24 26 19 18 20 25 22 17 15 19 24 26 27 31 19 9 3 2 10 12 11 10 10 8 6 5 3 4 5 6 8 11 15 18 18 17 14 9 9 11 15 19 18 16 16 17 17 17 16 14 11 9 9 10 10 10 11 14 14 13 12 9 10 10 9 8 7 6 6 6 7 8 9
1 9 19 21 23 25 26 24 19 12 5 10 18 25 26 18 14 15 20 21 19 16 17 22 24 26 30 22 16 9 -0 7 14 17 15 11 8 6 5 4 5 7 7 8 12 15 15 14 15 15 15 11 9 10 16 17 18 19 20 18 17 17 16 13 10 8 7 6 6 8 14 14 11 8 5 5 6 7 8 7 6 5 5 6 8 9
2 7 17 19 20 22 24 23 17 11 8 15 21 25 25 18 14 13 17 19 19 17 16 17 20 24 29 22 14 5 -3 3 13 20 19 12 7 5 4 5 7 8 7 8 11 15 17 14 13 14 18 14 10 8 10 13 18 23 23 15 12 11 13 11 10 8 8 5 5 8 13 13 9 4 2 4 6 8 9 7 6 5 5 7 9 11
3 7 16 19 19 19 21 21 18 14 14 20 23 23 21 17 15 14 16 18 19 19 17 15 15 17 22 20 13 4 -4 -2 8 19 23 12 6 4 4 6 8 9 8 7 10 14 20 17 13 11 14 14 13 11 9 9 14 19 22 8 4 5 8 8 8 8 8 6 7 10 14 10 5 0 -1 2 5 7 9 9 8 8 8 10 10 10
4 6 16 21 19 17 17 19 19 20 21 25 23 19 16 15 15 16 17 19 20 21 20 17 15 14 16 17 13 5 -3 -4 4 16 28 15 8 5 5 7 9 10 8 6 8 14 23 21 14 10 12 14 13 11 12 13 13 12 9 1 2 5 7 9 10 11 9 4 5 9 12 9 6 3 3 3 4 6 8 10 12 12 11 8 8 8
6 7 15 22 20 15 13 15 18 22 27 28 24 16 9 9 13 18 20 20 21 21 22 20 18 16 15 16 13 7 -1 -2 1 11 28 22 16 9 6 8 9 10 8 7 9 14 24 23 17 12 15 18 13 8 8 12 11 5 -3 -4 -3 -1 -0 4 9 13 14 8 4 3 6 7 8 7 7 9 10 11 14 15 15 15 12 10 10 11
8 8 14 21 21 17 11 12 16 23 30 30 24 15 7 6 11 17 23 24 23 22 23 23 21 19 17 16 13 9 5 3 3 7 19 25 25 20 14 9 7 6 5 6 9 16 25 26 20 15 17 19 16 13 14 16 10 2 -5 -0 2 1 -3 3 6 8 14 12 6 1 0 4 6 8 8 11 12 13 14 17 18 18 18 22 25 27
9 9 13 22 24 20 11 10 15 22 29 28 22 14 7 8 12 19 24 27 26 25 24 24 23 22 20 17 14 12 10 11 8 7 15 20 25 28 25 14 7 3 -2 2 10 21 34 38 34 27 24 18 14 14 21 24 22 18 16 15 13 11 11 17 15 10 10 9 6 3 2 5 8 9 9 11 13 16 19 20 22 22 22 23 25 26
10 8 11 22 27 25 14 11 13 18 24 21 17 12 8 10 14 20 23 27 29 28 25 23 23 24 23 20 17 15 15 18 9 4 19 17 19 24 32 20 11 2 -6 -2 13 30 44 45 45 42 38 30 25 24 25 25 25 26 28 31 30 26 23 19 17 17 18 17 16 15 15 17 19 20 19 20 21 20 19 20 22 24 25 20 16 13
8 7 8 18 25 27 21 16 14 14 16 14 12 11 10 10 14 19 24 27 29 28 26 23 21 20 19 19 18 18 20 22 9 -0 9 21 20 18 27 28 18 5 -4 -2 10 25 35 28 26 26 24 13 11 13 14 19 15 8 3 12 21 27 26 25 25 27 31 35 36 36 36 38 39 39 37 35 33 29 25 20 18 17 17 15 12 9
6 5 5 12 20 25 25 20 15 12 11 11 12 12 11 11 12 16 23 29 30 28 25 23 21 18 15 19 20 20 20 20 7 -5 -3 23 28 20 9 25 21 9 -1 1 5 10 16 5 -1 -2 0 1 3 4 1 8 -1 -14 -22 -15 -6 4 12 15 18 21 25 31 35 38 38 39 39 39 36 33 28 24 20 16 13 11 9 8 8 8
7 6 5 8 13 18 23 22 18 14 13 13 14 15 15 13 13 15 21 28 30 27 22 21 19 15 12 20 25 26 23 17 0 -12 -7 22 38 34 1 8 10 7 0 0 0 -0 -2 -9 -13 -13 -6 2 10 17 20 19 11 -0 -9 -8 -4 2 10 14 14 13 11 10 12 15 18 19 19 19 17 13 11 10 9 9 9 9 8 8 9 10
9 8 7 7 9 13 19 20 18 16 16 17 18 19 19 17 17 18 22 25 25 24 20 19 15 11 8 15 23 30 31 17 -0 -11 -5 17 37 44 24 2 -5 -5 -4 -4 -5 -8 -12 -11 -9 -5 2 7 12 17 23 25 22 17 13 12 11 11 12 13 13 12 9 6 4 2 1 2 4 5 5 5 6 7 8 9 10 11 12 13 14 16
9 9 8 7 8 11 17 17 16 15 17 19 21 21 21 20 21 22 24 23 21 19 18 16 13 10 8 11 19 27 34 21 5 -5 1 10 24 37 44 14 -5 -16 -20 -16 -16 -17 -21 -9 -2 2 3 5 7 10 13 17 20 21 23 23 21 19 15 11 9 8 8 7 6 4 2 2 4 6 6 8 11 13 15 16 16 15 15 15 15 15
9 9 8 7 7 8 12 14 14 15 16 20 22 23 22 21 21 23 25 23 19 16 14 14 12 10 8 11 16 22 28 23 10 0 5 6 8 15 32 21 7 -6 -15 -14 -15 -16 -17 -6 1 4 3 1 -0 1 5 11 18 24 30 32 30 27 22 17 13 11 10 11 11 10 9 12 13 13 12 14 16 17 17 17 17 16 14 12 11 10
9 9 8 7 6 6 7 10 11 13 16 20 23 24 23 21 21 22 24 24 20 16 15 16 12 8 6 9 13 17 19 19 11 3 5 6 4 2 5 7 7 6 5 5 3 0 -2 0 4 6 7 8 5 4 7 17 25 31 35 36 33 29 24 21 17 15 13 14 13 13 12 14 14 15 16 18 18 16 14 14 14 13 10 8 6 5
9 9 9 7 6 6 6 6 8 10 14 18 22 24 24 22 21 21 23 23 22 21 21 22 17 11 5 6 9 12 13 12 8 4 2 5 5 3 -1 -4 -4 -1 2 5 7 7 4 3 3 6 11 22 22 17 16 26 33 36 34 31 28 24 19 17 15 14 14 15 15 14 13 13 13 13 14 15 14 12 10 9 9 7 4 3 3 3
Height
2928 2929 2931 2933 2935 2938 2940 2943 2945 2948 2950 2952 2955 2957 2959 2963 2966 2968 2970 2973 2975 2977 2980 2983 2986 2988 2991 2993 2995 2997 2999 3000 3003 3005 3007 3008 3010 3012 3015 3017 3020 3022 3025 3028 3030 3033 3036 3038 3042 3045 3047 3049 3051 3053 3056 3059 3061 3063 3065 3067 3070 3072 3073 3075 3077 3078 3079 3082 3083 3085 3085 3088 3090 3092 3094 3096 3098 3100 3102 3103 3105 3107 3108 3111 3113 3114
2924 2926 2929 2931 2933 2935 2937 2939 2942 2944 2946 2948 2951 2953 2955 2959 2962 2964 2967 2969 2971 2973 2977 2981 2983 2986 2988 2990 2992 2994 2997 2998 3000 3002 3003 3005 3007 3009 3012 3014 3017 3020 3022 3025 3028 3030 3033 3036 3039 3042 3044 3047 3049 3051 3054 3056 3059 3062 3063 3066 3068 3070 3071 3073 3074 3075 3077 3080 3083 3084 3085 3087 3088 3090 3092 3094 3095 3097 3099 3101 3103 3104 3106 3108 3110 3112
2922 2924 2927 2929 2930 2932 2934 2936 2938 2940 2942 2944 2947 2949 2951 2955 2958 2961 2963 2965 2966 2969 2974 2978 2981 2983 2985 2987 2989 2992 2994 2996 2998 2999 3002 3003 3005 3007 3009 3012 3014 3017 3019 3022 3025 3028 3030 3033 3036 3038 3041 3044 3046 3049 3052 3054 3057 3060 3062 3065 3067 3068 3069 3071 3072 3073 3076 3078 3080 3082 3083 3085 3087 3088 3090 3092 3093 3095 3096 3098 3099 3101 3103 3105 3107 3110
2920 2922 2924 2925 2927 2928 2931 2933 2935 2936 2938 2941 2944 2945 2947 2950 2954 2957 2959 2960 2961 2964 2970 2974 2977 2979 2981 2983 2986 2989 2991 2993 2995 2997 2999 3001 3003 3005 3007 3009 3012 3014 3017 3019 3022 3025 3027 3030 3033 3035 3038 3041 3044 3047 3049 3052 3054 3057 3060 3063 3065 3067 3068 3069 3070 3072 3075 3077 3078 3080 3081 3083 3084 3086 3088 3089 3091 3093 3094 3096 3098 3100 3102 3103 3105 3108
2918 2920 2921 2922 2924 2926 2928 2930 2932 2933 2934 2938 2940 2942 2943 2946 2949 2952 2955 2956 2957 2960 2965 2971 2974 2976 2978 2981 2983 2986 2988 2991 2993 2994 2996 2999 3001 3003 3005 3008 3010 3012 3015 3017 3019 3022 3025 3027 3030 3033 3036 3038 3041 3044 3047 3050 3052 3055 3059 3062 3063 3064 3065 3066 3068 3071 3073 3075 3076 3077 3078 3080 3082 3084 3086 3088 3089 3091 3093 3094 3096 3098 3100 3102 3104 3106
2916 2917 2918 2920 2922 2924 2925 2927 2928 2929 2931 2933 2936 2938 2940 2942 2945 2949 2953 2953 2953 2956 2961 2967 2971 2973 2975 2978 2981 2983 2985 2988 2990 2992 2994 2996 2999 3001 3004 3006 3008 3010 3013 3015 3017 3020 3022 3025 3028 3030 3033 3036 3039 3042 3045 3048 3051 3054 3058 3059 3061 3061 3062 3064 3067 3069 3071 3073 3074 3075 3076 3078 3080 3082 3084 3086 3088 3089 3091 3093 3094 3097 3099 3101 3103 3104
2913 2914 2916 2918 2920 2921 2923 2925 2926 2927 2928 2930 2932 2934 2936 2938 2941 2945 2949 2949 2949 2952 2957 2963 2967 2970 2973 2975 2978 2980 2983 2985 2987 2989 2992 2994 2997 3000 3002 3004 3006 3008 3011 3013 3015 3018 3020 3022 3025 3028 3030 3033 3036 3039 3043 3045 3049 3053 3056 3057 3058 3059 3061 3063 3064 3067 3069 3071 3072 3073 3074 3076 3078 3080 3082 3085 3087 3089 3090 3091 3093 3096 3098 3099 3101 3103
2912 2913 2915 2916 2918 2919 2921 2923 2924 2924 2925 2927 2928 2931 2933 2935 2937 2940 2943 2945 2946 2948 2954 2960 2964 2967 2969 2972 2974 2977 2979 2982 2985 2988 2990 2993 2995 2998 3000 3003 3005 3007 3009 3011 3013 3016 3018 3020 3023 3025 3028 3031 3034 3037 3040 3043 3046 3050 3053 3055 3057 3058 3060 3062 3063 3065 3067 3069 3070 3071 3072 3074 3076 3078 3081 3084 3086 3088 3089 3091 3093 3095 3096 3098 3099 3101
2910 2912 2913 2914 2915 2917 2919 2921 2922 2922 2923 2924 2926 2928 2930 2931 2933 2936 2938 2942 2944 2947 2951 2956 2961 2964 2966 2968 2971 2974 2977 2980 2983 2986 2988 2991 2993 2996 2998 3000 3003 3005 3008 3010 3012 3014 3016 3018 3020 3023 3026 3028 3031 3034 3037 3040 3044 3047 3050 3053 3055 3057 3059 3060 3062 3063 3065 3067 3068 3069 3071 3073 3075 3078 3080 3083 3084 3086 3088 3089 3092 3093 3095 3096 3098 3099
2908 2909 2910 2912 2913 2915 2917 2918 2919 2920 2921 2921 2923 2925 2927 2928 2931 2934 2937 2939 2942 2944 2947 2952 2956 2960 2963 2966 2969 2972 2975 2978 2981 2984 2986 2989 2991 2993 2996 2998 3001 3003 3006 3008 3010 3012 3014 3016 3018 3021 3023 3026 3029 3032 3035 3038 3041 3044 3047 3050 3052 3055 3057 3058 3060 3062 3064 3065 3066 3067 3069 3072 3075 3077 3079 3081 3083 3084 3086 3088 3089 3092 3093 3095 3097 3098
2906 2908 2909 2910 2912 2913 2914 2916 2917 2918 2919 2919 2921 2923 2924 2926 2929 2933 2936 2938 2940 2942 2944 2948 2952 2956 2960 2964 2967 2971 2973 2977 2979 2982 2985 2987 2989 2991 2993 2996 2998 3001 3003 3006 3008 3010 3013 3014 3017 3019 3021 3024 3027 3029 3032 3035 3038 3041 3044 3047 3050 3053 3055 3056 3058 3060 3062 3063 3065 3067 3068 3071 3073 3075 3077 3079 3081 3083 3085 3086 3088 3090 3092 3094 3096 3097
2905 2906 2908 2910 2911 2912 2913 2914 2915 2917 2918 2920 2921 2922 2924 2926 2928 2932 2935 2938 2940 2942 2943 2946 2949 2953 2957 2961 2965 2968 2972 2974 2977 2980 2983 2985 2987 2989 2991 2993 2996 2998 3001 3003 3006 3008 3010 3013 3015 3017 3019 3022 3024 3027 3030 3033 3036 3038 3042 3045 3048 3050 3053 3054 3055 3057 3059 3061 3063 3066 3068 3070 3071 3072 3074 3077 3079 3082 3084 3085 3087 3088 3091 3094 3095 3096
2903 2904 2906 2907 2908 2909 2910 2912 2914 2916 2918 2919 2920 2922 2923 2924 2927 2929 2933 2937 2939 2942 2943 2946 2949 2952 2955 2959 2962 2966 2969 2972 2974 2977 2980 2983 2985 2988 2989 2992 2994 2996 2998 3001 3004 3006 3008 3011 3013 3015 3017 3020 3022 3025 3028 3030 3033 3036 3039 3042 3045 3048 3050 3051 3053 3054 3056 3058 3062 3064 3066 3068 3069 3070 3072 3074 3077 3080 3082 3084 3086 3088 3090 3092 3093 3094
2902 2903 2904 2905 2906 2907 2909 2911 2912 2914 2915 2917 2918 2918 2919 2921 2925 2929 2933 2937 2939 2942 2943 2946 2948 2951 2954 2958 2961 2964 2966 2969 2972 2975 2978 2981 2983 2985 2988 2990 2992 2994 2996 2999 3002 3004 3006 3008 3011 3013 3015 3018 3020 3023 3026 3028 3031 3034 3037 3039 3043 3045 3047 3048 3050 3052 3054 3057 3060 3063 3064 3066 3066 3068 3070 3073 3076 3078 3080 3082 3084 3086 3088 3089 3090 3091
2900 2901 2903 2904 2905 2906 2908 2909 2910 2911 2912 2914 2915 2916 2918 2922 2926 2930 2933 2936 2939 2941 2943 2945 2948 2950 2953 2955 2958 2961 2964 2967 2970 2973 2976 2978 2981 2983 2985 2988 2990 2992 2994 2997 2999 3002 3004 3007 3009 3011 3013 3016 3018 3021 3024 3026 3029 3032 3034 3037 3039 3042 3044 3046 3048 3050 3053 3056 3058 3060 3062 3063 3065 3066 3068 3071 3074 3077 3078 3080 3082 3084 3086 3087 3088 3088
2898 2900 2901 2902 2903 2904 2906 2907 2908 2909 2911 2912 2913 2916 2919 2923 2926 2928 2932 2934 2937 2939 2942 2943 2946 2948 2950 2953 2956 2959 2962 2965 2968 2971 2973 2976 2979 2981 2983 2985 2988 2990 2992 2994 2997 2999 3002 3004 3007 3009 3012 3014 3017 3019 3022 3024 3027 3030 3032 3035 3037 3039 3041 3043 3045 3048 3051 3054 3056 3058 3060 3062 3063 3065 3067 3070 3072 3074 3076 3078 3080 3082 3083 3084 3085 3086
2897 2898 2899 2901 2902 2903 2905 2906 2907 2908 2910 2911 2913 2916 2918 2920 2923 2926 2929 2933 2936 2938 2941 2942 2944 2946 2948 2951 2954 2957 2960 2963 2966 2969 2972 2974 2977 2979 2981 2983 2985 2987 2989 2992 2994 2997 3000 3002 3005 3007 3010 3012 3015 3018 3020 3023 3025 3028 3030 3033 3035 3037 3039 3041 3043 3046 3048 3051 3053 3055 3058 3059 3062 3063 3066 3068 3070 3072 3073 3076 3078 3080 3081 3082 3083 3084
2896 2897 2898 2899 2901 2903 2904 2905 2907 2908 2909 2911 2913 2914 2916 2918 2922 2925 2928 2932 2935 2938 2939 2941 2943 2945 2946 2949 2951 2954 2958 2961 2964 2967 2970 2973 2975 2977 2979 2981 2983 2985 2987 2989 2992 2994 2997 3000 3002 3005 3008 3011 3013 3016 3018 3021 3023 3026 3028 3031 3033 3035 3037 3039 3042 3044 3047 3049 3051 3053 3055 3057 3060 3062 3064 3066 3068 3069 3071 3073 3075 3077 3079 3080 3081 3083
2894 2895 2897 2898 2900 2901 2903 2904 2906 2907 2908 2910 2912 2913 2915 2918 2921 2924 2928 2931 2933 2936 2937 2938 2940 2942 2944 2946 2949 2952 2956 2959 2962 2964 2968 2970 2973 2975 2977 2979 2981 2982 2984 2987 2989 2992 2994 2997 3000 3003 3006 3008 3011 3014 3016 3019 3021 3023 3026 3028 3030 3033 3035 3038 3040 3042 3045 3047 3049 3051 3053 3055 3057 3059 3062 3064 3065 3067 3068 3070 3072 3074 3077 3078 3080 3081
2893 2894 2896 2897 2898 2901 2903 2903 2905 2906 2908 2909 2910 2912 2915 2917 2920 2923 2926 2928 2930 2933 2935 2936 2937 2939 2942 2944 2947 2950 2954 2957 2960 2962 2965 2968 2971 2973 2975 2977 2978 2980 2982 2984 2987 2989 2992 2995 2998 3000 3003 3006 3009 3011 3014 3017 3019 3022 3024 3026 3028 3031 3033 3035 3038 3041 3043 3045 3047 3049 3051 3053 3055 3058 3060 3062 3063 3064 3066 3068 3070 3072 3074 3076 3078 3079
2892 2893 2894 2896 2898 2900 2901 2902 2904 2905 2907 2908 2909 2912 2914 2916 2918 2921 2923 2925 2928 2930 2932 2933 2935 2938 2940 2943 2945 2948 2951 2954 2957 2960 2963 2966 2969 2971 2973 2974 2976 2978 2980 2982 2984 2987 2989 2992 2995 2998 3001 3003 3006 3009 3012 3014 3017 3019 3022 3024 3027 3029 3031 3033 3036 3038 3041 3043 3045 3047 3049 3051 3053 3056 3058 3059 3061 3062 3064 3065 3068 3070 3072 3074 3076 3077
2890 2891 2893 2895 2897 2898 2900 2901 2903 2905 2906 2908 2909 2912 2913 2916 2918 2921 2922 2923 2926 2928 2930 2931 2933 2936 2939 2941 2943 2946 2949 2952 2954 2957 2960 2964 2967 2969 2971 2972 2974 2976 2978 2980 2983 2985 2988 2990 2993 2995 2998 3001 3004 3007 3009 3012 3015 3017 3020 3022 3025 3027 3029 3031 3034 3036 3038 3041 3042 3044 3046 3048 3051 3053 3056 3058 3059 3060 3062 3063 3066 3068 3070 3072 3073 3075
2889 2890 2892 2893 2895 2897 2899 2901 2903 2904 2905 2906 2908 2910 2912 2915 2918 2920 2922 2922 2923 2926 2928 2929 2931 2935 2938 2941 2943 2945 2948 2950 2953 2955 2959 2962 2964 2967 2968 2970 2972 2974 2976 2978 2981 2983 2986 2988 2991 2993 2996 2999 3002 3004 3007 3010 3013 3015 3018 3020 3023 3025 3027 3029 3032 3034 3036 3038 3040 3042 3043 3046 3048 3051 3053 3055 3057 3058 3060 3062 3064 3066 3068 3070 3072 3073
2888 2889 2891 2892 2894 2896 2898 2900 2902 2903 2904 2905 2906 2908 2911 2914 2917 2920 2921 2920 2921 2924 2926 2928 2931 2934 2938 2940 2942 2944 2946 2949 2951 2954 2957 2959 2962 2965 2967 2969 2970 2972 2974 2976 2979 2981 2983 2986 2988 2991 2993 2996 2999 3002 3005 3008 3010 3013 3016 3018 3020 3023 3025 3027 3029 3032 3034 3036 3038 3039 3041 3043 3045 3048 3051 3053 3055 3057 3058 3060 3063 3064 3066 3068 3070 3072
2887 2888 2889 2891 2893 2895 2897 2898 2900 2902 2903 2904 2905 2907 2909 2912 2915 2918 2920 2919 2920 2923 2926 2928 2930 2933 2936 2938 2940 2941 2944 2947 2949 2952 2954 2957 2960 2963 2965 2967 2968 2970 2972 2974 2977 2979 2982 2984 2987 2989 2991 2994 2997 2999 3002 3005 3008 3011 3013 3016 3018 3020 3022 3024 3027 3029 3031 3033 3035 3037 3038 3041 3043 3046 3048 3051 3053 3055 3057 3058 3060 3062 3064 3066 3068 3070
2887 2888 2889 2890 2892 2893 2895 2897 2899 2901 2902 2903 2904 2906 2908 2909 2911 2914 2916 2917 2919 2921 2924 2926 2927 2929 2933 2936 2938 2939 2943 2946 2948 2950 2952 2955 2958 2961 2963 2964 2966 2968 2970 2973 2975 2978 2979 2982 2984 2987 2989 2992 2994 2997 3000 3003 3006 3008 3011 3013 3016 3018 3020 3022 3024 3027 3029 3031 3033 3035 3036 3038 3041 3043 3046 3049 3051 3053 3054 3056 3058 3060 3062 3064 3065 3067
2886 2887 2888 2889 2891 2892 2894 2896 2898 2899 2901 2902 2903 2905 2906 2907 2908 2910 2913 2914 2916 2919 2922 2923 2925 2927 2930 2933 2936 2938 2942 2945 2947 2948 2950 2953 2956 2958 2960 2961 2963 2966 2968 2971 2973 2975 2977 2979 2982 2984 2987 2989 2992 2995 2998 3000 3003 3006 3009 3011 3013 3015 3018 3020 3022 3024 3027 3029 3031 3033 3035 3036 3038 3041 3043 3046 3048 3050 3052 3054 3056 3058 3059 3061 3063 3064
2886 2887 2888 2888 2890 2891 2893 2895 2897 2898 2900 2901 2902 2903 2904 2906 2907 2908 2909 2911 2914 2918 2920 2921 2923 2926 2929 2932 2933 2936 2939 2943 2945 2945 2948 2950 2953 2955 2957 2959 2962 2964 2966 2968 2970 2972 2974 2977 2979 2982 2984 2987 2990 2993 2995 2998 3001 3004 3006 3009 3011 3013 3016 3018 3020 3022 3024 3027 3029 3031 3033 3034 3036 3038 3041 3044 3046 3048 3049 3051 3053 3054 3056 3058 3060 3061
2885 2886 2887 2888 2889 2891 2892 2893 2895 2897 2899 2900 2901 2902 2903 2904 2905 2906 2907 2910 2913 2916 2918 2920 2922 2924 2928 2930 2931 2933 2937 2941 2942 2943 2945 2948 2950 2952 2954 2957 2960 2962 2963 2966 2968 2970 2973 2975 2978 2980 2982 2985 2988 2990 2993 2996 2999 3002 3004 3007 3009 3011 3013 3015 3018 3020 3023 3024 3026 3029 3031 3033 3034 3037 3039 3041 3043 3045 3047 3048 3050 3052 3054 3056 3057 3059
2885 2886 2887 2888 2888 2890 2891 2892 2894 2896 2898 2899 2900 2901 2902 2903 2903 2904 2906 2909 2913 2914 2915 2917 2919 2922 2925 2928 2929 2932 2936 2939 2940 2941 2943 2945 2947 2949 2952 2955 2958 2959 2961 2963 2966 2968 2971 2973 2975 2978 2980 2983 2985 2988 2991 2993 2996 2999 3001 3004 3007 3009 3011 3013 3016 3018 3020 3022 3024 3027 3028 3031 3033 3035 3037 3038 3040 3042 3044 3046 3048 3050 3052 3053 3055 3057
2884 2885 2886 2887 2888 2889 2890 2892 2893 2895 2896 2898 2899 2900 2901 2901 2902 2904 2906 2909 2911 2912 2913 2914 2917 2920 2922 2925 2927 2930 2934 2938 2939 2939 2942 2943 2945 2947 2950 2953 2955 2958 2960 2961 2963 2965 2968 2970 2973 2976 2978 2980 2983 2986 2988 2991 2993 2996 2998 3001 3004 3007 3009 3011 3014 3016 3018 3020 3022 3024 3026 3028 3031 3033 3035 3036 3038 3040 3042 3044 3046 3048 3050 3052 3054 3056
2884 2885 2886 2886 2887 2888 2889 2891 2892 2894 2895 2897 2898 2899 2899 2900 2901 2903 2906 2907 2908 2909 2911 2913 2915 2918 2920 2923 2925 2928 2933 2936 2937 2937 2939 2941 2943 2946 2948 2951 2953 2956 2958 2960 2961 2962 2964 2967 2971 2973 2975 2978 2981 2983 2986 2989 2991 2993 2995 2998 3001 3003 3006 3008 3011 3013 3016 3018 3020 3022 3024 3027 3029 3031 3032 3034 3036 3038 3040 3042 3044 3046 3048 3050 3053 3054
2884 2884 2885 2886 2887 2888 2889 2890 2891 2893 2894 2896 2897 2898 2898 2899 2900 2902 2903 2905 2906 2908 2910 2912 2914 2916 2919 2922 2924 2928 2932 2934 2935 2935 2938 2939 2942 2945 2947 2949 2951 2953 2956 2958 2960 2962 2963 2965 2967 2970 2973 2975 2978 2981 2984 2986 2989 2991 2993 2995 2998 3000 3003 3005 3008 3011 3013 3016 3018 3021 3023 3025 3027 3029 3030 3032 3034 3037 3039 3041 3043 3045 3047 3049 3051 3053
2883 2884 2884 2885 2886 2887 2888 2889 2890 2892 2893 2894 2895 2896 2897 2898 2899 2901 2903 2904 2906 2907 2909 2911 2913 2915 2918 2922 2924 2927 2930 2934 2934 2934 2936 2938 2941 2943 2944 2947 2948 2951 2953 2955 2958 2961 2963 2964 2965 2967 2970 2973 2976 2978 2981 2984 2986 2989 2991 2993 2995 2998 3000 3003 3006 3008 3011 3013 3016 3018 3021 3023 3025 3027 3029 3031 3033 3035 3037 3039 3042 3044 3046 3048 3049 3050
2883 2883 2883 2884 2885 2886 2887 2888 2889 2891 2892 2893 2894 2895 2896 2898 2899 2900 2902 2903 2905 2906 2908 2909 2912 2914 2918 2922 2924 2926 2928 2932 2933 2933 2934 2937 2939 2941 2943 2945 2947 2949 2951 2953 2955 2958 2961 2962 2964 2965 2967 2970 2973 2976 2979 2981 2983 2986 2988 2991 2993 2996 2999 3001 3003 3006 3009 3011 3013 3015 3018 3020 3022 3024 3027 3029 3032 3033 3035 3038 3040 3042 3044 3046 3047 3048
2883 2883 2883 2883 2884 2885 2886 2887 2888 2890 2891 2892 2893 2894 2895 2897 2898 2899 2901 2903 2904 2905 2907 2909 2911 2914 2918 2921 2924 2926 2928 2931 2932 2932 2933 2935 2937 2939 2942 2943 2945 2948 2949 2952 2953 2956 2958 2960 2963 2964 2966 2968 2971 2974 2977 2979 2981 2983 2986 2989 2992 2995 2998 3000 3002 3004 3007 3009 3011 3013 3015 3018 3020 3023 3025 3028 3030 3032 3034 3036 3038 3040 3041 3043 3044 3045
2883 2883 2883 2883 2883 2884 2885 2887 2888 2889 2890 2891 2892 2893 2894 2896 2897 2899 2900 2902 2903 2905 2906 2908 2911 2914 2917 2920 2923 2925 2928 2930 2932 2932 2932 2933 2935 2938 2940 2942 2944 2947 2948 2950 2952 2954 2955 2958 2961 2963 2965 2967 2968 2971 2974 2977 2980 2982 2985 2988 2990 2993 2997 2999 3001 3003 3004 3007 3009 3011 3014 3016 3018 3021 3023 3025 3027 3029 3031 3033 3035 3037 3038 3039 3041 3042
2883 2883 2883 2883 2883 2884 2885 2886 2887 2888 2889 2890 2891 2893 2894 2895 2897 2898 2899 2901 2903 2904 2906 2908 2910 2913 2916 2919 2923 2925 2927 2929 2932 2932 2931 2932 2934 2937 2939 2941 2944 2946 2948 2949 2951 2953 2954 2956 2958 2961 2964 2967 2969 2971 2973 2975 2978 2981 2983 2986 2989 2992 2994 2997 2999 3001 3003 3005 3007 3010 3012 3014 3017 3018 3021 3023 3024 3026 3028 3030 3032 3034 3035 3037 3038 3039
2883 2883 2883 2883 2883 2883 2884 2885 2886 2888 2888 2889 2890 2892 2893 2894 2896 2897 2898 2900 2902 2903 2905 2907 2909 2912 2915 2918 2921 2924 2927 2928 2930 2931 2931 2931 2933 2935 2938 2940 2943 2945 2947 2949 2951 2953 2954 2955 2957 2958 2961 2964 2968 2971 2973 2975 2977 2979 2982 2985 2988 2991 2993 2995 2997 2999 3001 3003 3005 3008 3011 3013 3015 3017 3019 3021 3023 3024 3026 3028 3030 3031 3033 3034 3035 3037
2883 2883 2882 2883 2883 2883 2884 2885 2886 2887 2888 2889 2890 2891 2893 2894 2896 2897 2898 2899 2901 2903 2904 2906 2908 2911 2913 2917 2920 2923 2925 2927 2930 2932 2932 2931 2932 2934 2936 2938 2941 2944 2946 2949 2951 2953 2954 2956 2958 2959 2960 2962 2965 2969 2972 2975 2977 2978 2980 2983 2986 2988 2991 2993 2995 2998 3000 3002 3004 3006 3008 3010 3012 3015 3017 3019 3021 3023 3024 3026 3028 3029 3031 3032 3034 3036
2883 2883 2882 2882 2883 2883 2884 2884 2885 2886 2887 2888 2890 2891 2893 2894 2895 2897 2898 2899 2900 2902 2904 2906 2908 2911 2913 2916 2918 2921 2923 2926 2929 2932 2933 2932 2932 2933 2935 2937 2940 2943 2945 2948 2950 2952 2953 2955 2957 2959 2961 2962 2964 2967 2969 2973 2975 2977 2978 2979 2982 2984 2988 2991 2993 2995 2998 3000 3002 3004 3006 3008 3011 3013 3015 3017 3019 3021 3022 3024 3026 3028 3029 3031 3033 3035
2883 2883 2883 2883 2883 2883 2884 2884 2885 2886 2887 2888 2889 2891 2892 2893 2894 2896 2897 2898 2900 2902 2904 2906 2908 2910 2912 2915 2917 2919 2922 2925 2928 2931 2933 2933 2933 2933 2934 2936 2939 2942 2944 2947 2949 2951 2953 2954 2956 2958 2959 2960 2962 2964 2967 2969 2972 2974 2976 2977 2978 2981 2984 2988 2990 2992 2994 2996 2999 3001 3004 3006 3008 3010 3013 3014 3016 3018 3020 3023 3024 3026 3028 3030 3032 3034
2883 2883 2883 2883 2883 2883 2884 2884 2885 2885 2886 2887 2888 2890 2891 2893 2893 2895 2896 2897 2899 2901 2903 2905 2907 2909 2911 2913 2916 2918 2921 2923 2927 2930 2933 2934 2934 2934 2934 2935 2938 2941 2944 2947 2949 2952 2954 2955 2957 2958 2960 2961 2962 2962 2963 2966 2969 2972 2974 2976 2976 2977 2980 2983 2985 2988 2990 2993 2996 2998 3001 3003 3006 3008 3010 3012 3014 3016 3018 3021 3023 3025 3027 3028 3030 3032
2883 2883 2883 2883 2883 2884 2884 2884 2885 2885 2886 2887 2888 2889 2891 2892 2893 2894 2895 2897 2898 2900 2902 2904 2906 2909 2911 2913 2915 2917 2920 2923 2926 2928 2931 2934 2936 2936 2935 2936 2937 2940 2943 2947 2950 2952 2953 2955 2958 2960 2963 2965 2966 2967 2967 2968 2970 2972 2974 2976 2978 2978 2979 2981 2983 2985 2988 2991 2993 2996 2998 3001 3003 3005 3008 3010 3012 3014 3016 3018 3020 3023 3025 3027 3029 3031
2883 2884 2883 2883 2883 2884 2884 2884 2885 2886 2886 2887 2888 2889 2890 2891 2892 2893 2894 2896 2897 2899 2902 2904 2906 2908 2911 2913 2914 2916 2919 2922 2925 2928 2929 2933 2935 2937 2937 2937 2937 2939 2943 2947 2950 2953 2953 2955 2957 2960 2963 2966 2968 2969 2971 2972 2973 2974 2976 2978 2980 2982 2983 2985 2986 2988 2989 2991 2993 2995 2997 2999 3001 3003 3005 3008 3010 3012 3014 3017 3019 3022 3024 3027 3029 3031
2884 2884 2884 2884 2884 2884 2884 2885 2885 2886 2887 2887 2888 2889 2890 2890 2891 2893 2894 2895 2897 2898 2901 2903 2905 2908 2910 2912 2914 2916 2918 2921 2924 2926 2928 2931 2933 2936 2938 2938 2939 2939 2941 2945 2948 2952 2953 2955 2957 2959 2962 2964 2967 2969 2971 2972 2973 2975 2977 2979 2981 2983 2985 2988 2989 2990 2992 2993 2994 2996 2998 3000 3002 3004 3006 3008 3010 3012 3014 3017 3019 3021 3024 3026 3028 3030
2885 2885 2885 2885 2884 2884 2885 2885 2886 2886 2887 2887 2888 2888 2889 2890 2891 2892 2893 2894 2896 2898 2900 2903 2905 2907 2909 2912 2913 2915 2918 2920 2923 2924 2926 2929 2932 2934 2937 2938 2940 2941 2941 2943 2945 2948 2951 2954 2956 2958 2960 2963 2965 2967 2969 2971 2973 2974 2976 2978 2980 2981 2983 2986 2988 2990 2992 2994 2996 2998 2999 3001 3003 3005 3007 3009 3011 3013 3015 3017 3019 3021 3023 3025 3027 3029
2885 2885 2885 2885 2885 2885 2885 2886 2886 2886 2887 2887 2888 2888 2889 2890 2891 2892 2893 2894 2895 2897 2900 2902 2904 2907 2909 2911 2913 2914 2917 2919 2921 2923 2925 2928 2930 2933 2935 2938 2939 2941 2943 2944 2945 2946 2949 2952 2955 2958 2960 2962 2963 2966 2968 2970 2972 2973 2975 2977 2978 2980 2982 2984 2987 2989 2991 2993 2996 2998 2999 3001 3003 3005 3007 3009 3011 3013 3015 3016 3018 3020 3022 3024 3026 3028
2886 2886 2886 2886 2886 2886 2886 2886 2887 2887 2887 2888 2888 2888 2889 2890 2891 2892 2893 2894 2895 2897 2899 2902 2904 2906 2908 2911 2912 2914 2916 2919 2921 2923 2925 2927 2930 2932 2935 2937 2939 2941 2943 2944 2946 2948 2950 2952 2954 2956 2959 2961 2963 2965 2967 2969 2971 2972 2974 2976 2978 2979 2982 2984 2986 2988 2990 2992 2994 2997 2998 3001 3003 3005 3007 3009 3010 3012 3014 3016 3017 3019 3021 3023 3025 3027
2886 2886 2887 2886 2886 2886 2886 2887 2887 2888 2888 2888 2888 2889 2889 2890 2891 2892 2893 2893 2895 2897 2899 2901 2904 2906 2908 2910 2912 2914 2916 2918 2921 2923 2924 2926 2928 2931 2933 2936 2938 2939 2942 2944 2946 2948 2950 2952 2954 2956 2959 2961 2963 2964 2966 2967 2969 2971 2973 2975 2977 2978 2981 2983 2985 2987 2989 2991 2993 2995 2998 3000 3002 3004 3007 3008 3010 3012 3013 3015 3017 3019 3021 3023 3025 3027
2887 2887 2887 2887 2887 2887 2887 2887 2888 2888 2888 2889 2889 2889 2889 2890 2891 2892 2893 2893 2895 2897 2898 2901 2903 2906 2908 2910 2912 2913 2915 2918 2920 2922 2923 2925 2927 2929 2931 2933 2935 2937 2939 2942 2944 2946 2948 2950 2953 2956 2958 2960 2962 2964 2965 2966 2967 2969 2971 2973 2975 2977 2980 2982 2984 2986 2988 2990 2992 2994 2997 2998 3001 3003 3005 3008 3010 3012 3014 3015 3017 3019 3021 3023 3024 3026